Other Public Products
Issued by NWS Charleston, SC

Current Version | Previous Version | Graphics & Text | Print | Product List | Glossary On
Versions: 1 2 3 4 5 6 7 8 9 10 11 12 13 14 15 16 17 18 19 20 21 22 23 24 25 26 27 28 29 30 31 32 33 34 35 36 37 38 39 40 41 42 43 44 45 46 47 48 49 50
783
FPUS82 KCHS 222227
OPUCHS

TEST...KCHS/KSAV Gateway Observations...TEST
National Weather Service Charleston SC
500 PM EST SUN JAN 22 2017

NOTE: "fair" indicates few or no clouds below 12,000 feet with no
significant weather and/or obstructions to visibility.

SCZ050-WAZ558-NCZ071-TXZ119-213-PAZ071-DCZ001-FLZ074-172-MI076-
NYZ176-178-MAZ016-IL014-TNZ027-NJZ106-GAZ044-MD014-222300-
...Gateway Observations for Charleston International...

CITY           SKY/WX    TMP DP  RH WIND       PRES   REMARKS
Chas Airport   CLOUDY    62  59  90 E8        29.45F
Seattle        CLOUDY    44  40  85 SE9       29.54F
Charlotte      CLOUDY    61  55  81 NE15G24   29.45F
Dallas DFW     MOSUNNY   66  34  30 NW36G44   29.72R
Dallas Love    MOSUNNY   65  34  31 NW28G45   29.73R
Philladelphia  LGT RAIN  49  48  97 NE10      29.68S FOG
Wash National  LGT RAIN  50  50 100 NE7       29.63R
Baltimore      CLOUDY    50  50 100 NE12      29.63F FOG
Miami          MOSUNNY   84  67  56 S24G33    29.70F
Detroit        FOG       48  48 100 NE8       29.61S VSB 1/16
Newark         LGT RAIN  48  46  93 NE9       29.73R FOG
Laguardia      CLOUDY    46  42  86 NE12      29.73R
J F K          CLOUDY    49  49 100 NE7       29.73R
Boston Logan   LGT RAIN  41  40  96 NE17      29.87R FOG
Ft. Lauderdale MOSUNNY   83  66  56 SW22G32   29.68S
Chicago O`Hare CLOUDY    44  38  79 N8        29.62R
Chicago Midway CLOUDY    44  38  79 NE10      29.62R
Houston Bush   PTSUNNY   64  45  49 NW24G35   29.69R
Houston Hobby  MOSUNNY   68  43  40 NW30G45   29.68R
Nashville      CLOUDY    64  51  62 E5        29.29F
Atlanta        CLOUDY    62  60  93 SE15      29.19F

$$

GAZ044-118-TXZ119-213-NCZ071-DCZ001-MDZ014-506-PAZ021-071-NJZ106-
NYZ176-178-MAZ106-OHZ011-021-055-MIZ076-KYZ091-ILZ014-INZ047-
MNZ060-222300-
...Gateway Observations for Savannah International...

CITY           SKY/WX    TMP DP  RH WIND       PRES   REMARKS
Savannah Arpt  CLOUDY    63  59  87 E12       29.42F
Atlanta        CLOUDY    62  60  93 SE15      29.19F
Charlotte      CLOUDY    61  55  81 NE15G24   29.45F
Dallas DFW     MOSUNNY   66  34  30 NW36G44   29.72R
Houston Bush   PTSUNNY   64  45  49 NW24G35   29.69R
Wash National  LGT RAIN  50  50 100 NE7       29.63R
Wash Dulles    LGT RAIN  49  47  93 N6        29.62S FOG
Baltimore      CLOUDY    50  50 100 NE12      29.63F FOG
Philadelphia   LGT RAIN  49  48  97 NE10      29.68S FOG
Newark         LGT RAIN  48  46  93 NE9       29.73R FOG
Laguardia      CLOUDY    46  42  86 NE12      29.73R
J F K          CLOUDY    49  49 100 NE7       29.73R
Boston         LGT RAIN  41  40  96 NE17      29.87R FOG
Pittsburg      CLOUDY    60  48  64 NE8       29.53S
Akron          MOCLDY    58  48  69 E10       29.55S
Cleveland      CLOUDY    53  46  77 N8        29.59R
Cincinnati     MOCLDY    61  49  64 NE15      29.43F
Columbus         N/A     58  48  70 NE9       29.46F
Detroit        FOG       48  48 100 NE8       29.61S VSB 1/16
Chicago O`Hare CLOUDY    44  38  79 N8        29.62R
Minneapolis    CLOUDY    40  35  83 W6        29.73R WCI  36
Indianapolis   CLOUDY    59  50  72 N10       29.47S

$$




USA.gov is the U.S. government's official web portal to all federal, state and local government web resources and services.